User: anonymous   Login
Location: Bremen
(53.0793°N, 8.8017°E)
Time: 22:10:22
(UTC+02:00)
Language:

Envisat - Orbit

View from above orbital plane
View from above orbital plane
View from above satellite
View from above satellite

Ground track
Ground track

The orbit data is extracted from the following two-line orbital elements,

1 27386U 02009A   24104.48742226  .00000218  00000-0  85071-4 0  9999
2 27386  98.2767  67.8476 0001291  82.3686  26.9889 14.38537471159270
Epoch (UTC): 13 April 2024 11:41:53
Eccentricity: 0.0001291
inclination: 98.2767°
perigee height: 762 km
apogee height: 764 km
right ascension of ascending node: 67.8476°
argument of perigee: 82.3686°
revolutions per day: 14.38537471
mean anomaly at epoch: 26.9889°
orbit number at epoch: 15927

The dashed part of the orbit path shows where the satellite is in the earth's shadow,  

DLR